[Iaude] MPEC F124: 2019 FX [a=1.38,e=0.27,i=5.7,H=26.0]

mpec at mpcdb1.cfa.harvard.edu mpec at mpcdb1.cfa.harvard.edu
Thu Mar 28 10:45:16 EDT 2019


M.P.E.C. 2019-F124                               Issued 2019 Mar. 28, 14:42 UT
 
     The Minor Planet Electronic Circulars contain information on unusual
         minor planets and routine data on comets.  They are published
    on behalf of Division F of the International Astronomical Union by the
          Minor Planet Center, Smithsonian Astrophysical Observatory,
                          Cambridge, MA 02138, U.S.A.

             Prepared using the Tamkin Foundation Computer Network

                              MPC at CFA.HARVARD.EDU
            URL https://www.minorplanetcenter.net/    ISSN 1523-6714


                                    2019 FX
 
Observations:
     K19F00X* C2019 03 27.46875313 10 59.32 -22 43 17.9          17.89oVEF124T05
     K19F00X  C2019 03 27.47712313 11 20.63 -22 41 39.6          17.33oVEF124T05
     K19F00X  C2019 03 27.48357113 11 37.07 -22 40 24.8          17.58oVEF124T05
     K19F00X  C2019 03 27.48494313 11 40.60 -22 40 08.4          17.63oVEF124T05
     K19F00X  C2019 03 27.49136513 11 56.88 -22 38 52.1          17.77oVEF124T05
     K19F00X  C2019 03 27.49228013 11 59.40 -22 38 41.7          17.64oVEF124T05
     K19F00X KC2019 03 27.94213213 33 32.37 -21 06 20.6          18.0 GVEF124L01
     K19F00X KC2019 03 27.94262013 33 33.66 -21 06 14.9          17.8 GVEF124L01
     K19F00X KC2019 03 27.94420013 33 37.92 -21 05 53.9          17.7 GVEF124L01
     K19F00X KC2019 03 27.94558713 33 41.60 -21 05 36.3          18.0 GVEF124L01
     K19F00X KC2019 03 27.94618313 33 43.20 -21 05 28.7          17.8 GVEF124L01
     K19F00X KC2019 03 27.94716813 33 45.88 -21 05 15.4          18.0 GVEF124L01
     K19F00X KC2019 03 27.98829913 35 43.04 -20 55 51.6          17.3 VqEF124I93
     K19F00X KC2019 03 27.99792 13 36 09.41 -20 53 37.2          17.4 GVEF124958
     K19F00X KC2019 03 27.99808213 36 09.17 -20 53 41.0          17.4 VqEF124I93
     K19F00X KC2019 03 28.00212 13 36 20.58 -20 52 41.6          17.3 GVEF124958
     K19F00X KC2019 03 28.00296 13 36 11.11 -20 52 57.7          17.4 RoEF124K88
     K19F00X KC2019 03 28.00583 13 36 18.79 -20 52 18.3          17.1 RoEF124K88
     K19F00X KC2019 03 28.00637 13 36 31.89 -20 51 43.3          17.5 GVEF124958
     K19F00X KC2019 03 28.00871 13 36 26.49 -20 51 38.2          16.9 RoEF124K88
     K19F00X KC2019 03 28.01251213 36 47.60 -20 50 25.7          17.8 VqEF124I93
     K19F00X  C2019 03 28.43674 13 56 32.91 -19 06 05.0          17.3 GVEF124I52
     K19F00X  C2019 03 28.43687 13 56 33.23 -19 06 03.3          17.6 GVEF124I52
     K19F00X  C2019 03 28.43699 13 56 33.56 -19 06 00.8          17.6 GVEF124I52
     K19F00X  C2019 03 28.43712 13 56 33.90 -19 05 59.1          17.4 GVEF124I52
     K19F00X KC2019 03 28.48569113 59 26.58 -18 40 30.8          18.0 GVEF124R57
     K19F00X KC2019 03 28.48645713 59 28.63 -18 40 19.6          17.9 GVEF124R57
     K19F00X KC2019 03 28.48722313 59 30.68 -18 40 07.9          18.2 GVEF124R57
     K19F00X KC2019 03 28.48799013 59 32.74 -18 39 56.7          17.8 GVEF124R57
 
Observer details:
958 Observatoire de Dax.  Observers P. Dupouy, J. B. de Vanssay.  Measurer
    P. Dupouy.  0.43-m f/2.7 reflector + CCD.
I52 Steward Observatory, Mt. Lemmon Station.  Observer H. Groeller.
    Measurers B. M. Africano, E. J. Christensen, G. A. Farneth, D. C. Fuls,
    A. R. Gibbs, A. D. Grauer, H. Groeller, R. A. Kowalski, S. M. Larson,
    G. J. Leonard, T. A. Pruyne, R. L. Seaman, F. C. Shelly.  1.0-m reflector
    + CCD.
I93 St Pardon de Conques.  Observer F. Losse.  0.40-m f/3.7 reflector + CCD.
K88 GINOP-KHK, Piszkesteto.  Observer K. Sarneczky.  0.60-m Schmidt + CCD.
L01 Visnjan Observatory, Tican.  Observer K. Korlevic.  1.0-m f/2.9 reflector
    + CCD.
R57 Aorangi Iti Observatory, Lake Tekapo.  Observers A. C. Gilmore,
    P. M. Kilmartin.  Measurer P. M. Kilmartin.  0.35-m f/11
    Schmidt-Cassegrain + CCD.
T05 ATLAS-HKO, Haleakala.  Observers L. Denneau, J. Tonry, A. Heinze,
    H. Weiland, H. Flewelling.  Measurers L. Denneau, J. Tonry, A. Heinze,
    H. Weiland, H. Flewelling, B. Stalder, A. Fitzsimmons, D. Young,
    N. Erasmus.  0.5-m reflector + CCD.
 
Orbital elements:
2019 FX                                                  Earth MOID = 0.0111 AU
Epoch 2019 Apr. 27.0 TT = JDT 2458600.5                 MPC
M  13.83025              (2000.0)            P               Q
n   0.60493525     Peri.    6.49478     -0.96648274     +0.25632564
a   1.3846185      Node   188.39946     -0.23976858     -0.92129120
e   0.2715369      Incl.    5.66987     -0.09177218     -0.29243749
P   1.63           H   26.0           G   0.15           U   6
Residuals in seconds of arc
190327 T05  0.3+  0.5-    190327 L01  0.5-  0.7-    190328 I93  0.1-  0.5+
190327 T05  0.3-  0.6+    190327 L01  0.2+  0.4-    190328 I52  0.1+  0.1+
190327 T05  0.5-  0.2-    190327 I93  0.0   0.1-    190328 I52  0.2-  0.3-
190327 T05  0.1-  0.1+    190327 958  1.2+  0.7+    190328 I52  0.0   0.3+
190327 T05 (1.8-  0.5+)   190327 I93  0.2+  0.3-    190328 I52  0.0   0.0
190327 T05  0.7+  0.1+    190328 958  0.9+  0.0     190328 R57  0.0   0.0
190327 L01  0.4-  0.5+    190328 K88  0.7-  0.2-    190328 R57  0.0   0.2-
190327 L01  0.6-  0.2-    190328 K88  0.3-  0.4-    190328 R57  0.0   0.1+
190327 L01  0.2-  0.1+    190328 958  0.8+  1.1+    190328 R57  0.0   0.1-
190327 L01  0.6-  0.5-    190328 K88  0.1-  0.2-

Ephemeris:
2019 FX                  a,e,i = 1.38, 0.27, 6                   q = 1.0086
Date    TT    R. A. (2000) Decl.     Delta      r     Elong.  Phase     V
2019 02 26    08 33 49.2 -21 10 52   0.09158 1.0595   137.7    38.9    22.5
...
2019 03 13    08 56 17.9 -24 31 35   0.04785 1.0272   133.5    44.6    21.2
...
2019 03 21    09 58 30.0 -27 09 05   0.02636 1.0163   140.2    38.8    19.7
...
2019 03 27    12 49 22.2 -23 58 58   0.01471 1.0112   157.3    22.4    17.9
2019 03 28    13 36 01.4 -20 44 05   0.01400 1.0106   155.0    24.7    17.9
2019 03 29    14 23 03.0 -16 27 43   0.01388 1.0101   148.8    30.8    18.1
...
2019 04 04    17 20 03.8 +05 37 49   0.02281 1.0086   111.8    67.0    20.2
...
2019 04 12    18 26 27.7 +13 58 09   0.04298 1.0111   100.7    76.9    21.9
...
2019 04 27    18 57 53.5 +17 33 21   0.08183 1.0288   103.7    71.9    23.1

A. U. Tomatic                (C) Copyright 2019 MPC           M.P.E.C. 2019-F124



More information about the Iaude mailing list